Showing default

GEOEYE 1, 33331

Orbit data source: Space-Track

GEOEYE 1, 33331 is a payload satellite owned by GeoEye (US) in SSO that was launched on Sat, 06 Sep 2008 UTC via a DELTA 7420-10C launch vehicle from the Air Force Western Test Range (AFWTR). Payload-class satellites include a variety of spacecraft equipped with specific instruments for various scientific and technological missions. These include communications satellites like Starlink; space stations such as the ISS; scientific satellites like the Hubble; Earth observation satellites from companies like Planet Labs, Umbra, and HawkEye 360; GPS; miniature CubeSats for education and research; and military/defense satellites.

Loading next visibility...
Identifier
33331, 2008-042A
Orbit
SSO
Country
Flag of USUS
Related business
Manufacturer
GD C4 Systems
Mission
Operational Commercial Imaging
Bus & Motor
SA-200HP, AOCS
Mass
1,923 kg wet, 1,779 kg dry
Launch date (UTC)
2008-09-06 (18 years ago)
Launch vehicle
DELTA 7420-10C
Launch site
Air Force Western Test Range (AFWTR)
Object type
Payload
Rocket body
Debris
Shape & HBR
Hex Cyl + 1 Pan, 3.6 m
Radar Cross Section
11.719 m², Large (>1 m²)

Expand to show TLE details & history
Last TLE update: 2 days ago

TLE from 2 days ago
0 GEOEYE 1
1 33331U 08042A   26171.43092722  .00000322  00000-0  69364-4 0  9992
2 33331  98.1235 245.3211 0005299  61.7686 298.4052 14.64728217950624
Epoch: 2026-06-20T10:20Z
TLE epoch observation values (Epoch: 2026-06-20T10:20:32.111Z)
Latitude
0.00002°
Longitude
-178.45835°
Altitude
679.164 km
Speed
7.518 km/s
True Right ascension
16h 21m 17s
True Declination
0° 00' 00"
Sunlit
Object was in full shadow at epoch
Visualization orbit readout
Latitude
Unknown
Longitude
Unknown
Altitude
Unknown
Speed
Unknown
Apparent Right ascension
Unknown
Apparent Declination
Unknown
Sunlit
N/A
Visualization observer readout
Local Sidereal Time
23:18:26
Azimuth
Unknown
Elevation
Unknown
Doppler factor
Unknown
Orbital elements
Apogee altitude
678.757 km
Perigee altitude
671.282 km
Semi-major axis
7,053.156 km
Eccentricity
0.00053
Inclination
98.1235°
RAAN
245.3211°
Arg. of periapsis
61.7686°
True anomaly
298.35177°
Mean anomaly
298.4052°
Eccentric anomaly
298.37849°
Mean motion
3.6641 °/min
Orbital period
98.25 mins
BSTAR
0.000069364
Loading maneuver chart data...
Computing Atmospheric mass density...
Loading historical data...
Loading historical data...
Loading historical data...
Loading historical data...
Loading historical data...
Loading historical data...
Loading historical data...
Other satellites on launch #42 in the year 2008 (2008-09-06 UTC)

Documentation

Showing up to 5 results
|